Fulton, NY

4:50 AM EDT on April 25, 2018 (GMT -0400)
Oswego County

Weather History for KFZY - April, 2014

Change the Weather History Date:

Sunday, April 13, 2014

  Actual Average (KSYR) Record (KSYR)
Temperature  
Mean Temperature 64 °F -  
Max Temperature 82 °F 57 °F 85 °F (1945)
Min Temperature 48 °F 34 °F 21 °F (1940)
Growing Degree Days 14 (Base 50)    
Moisture  
Dew Point 45 °F    
Average Humidity 54    
Maximum Humidity 77    
Minimum Humidity 33    
Precipitation  
Precipitation 0.05 in - - ()
Sea Level Pressure  
Sea Level Pressure 29.88 in    
Wind  
Wind Speed 7 mph (SE)    
Max Wind Speed 18 mph    
Max Gust Speed 25 mph    
Visibility 10 miles    
Events Rain    
Averages and records for this station are not official NWS values.
T = Trace of Precipitation, MM = Missing Value Source: NWS Daily Summary

Daily Weather History Graph

Daily Weather History Graph

Search for Another Location

Airport or City:

Astronomy

Apr. 13, 2014 Rise Set
Actual Time 6:26 AM EDT 7:46 PM EDT
Civil Twilight 5:57 AM EDT 8:15 PM EDT
Nautical Twilight 5:21 AM EDT 8:51 PM EDT
Astronomical Twilight 4:44 AM EDT 9:29 PM EDT
Moon 6:19 PM EDT (4/13) 5:27 AM EDT (4/13)
Length of Visible Light 14h 18m
Length of Day
13h 19m
Waxing Gibbous, 97% of the Moon is Illuminated
Apr 13
Waxing Gibbous
Apr 15
Full
Apr 22
Last Quarter
Apr 29
New
May 6
First Quarter

Hourly Weather History & Observations

Time (EDT) Temp. Dew Point Humidity Pressure Visibility Wind Dir Wind Speed Gust Speed Precip Events Conditions
12:54 AM 53.1 °F 32.0 °F 45% 30.07 in 10.0 mi East 4.6 mph - N/A   Scattered Clouds
1:54 AM 53.1 °F 32.0 °F 45% 30.04 in 10.0 mi East 4.6 mph - N/A   Overcast
2:54 AM 54.0 °F 32.0 °F 43% 30.02 in 10.0 mi Variable 3.5 mph - N/A   Overcast
3:54 AM 48.9 °F 41.0 °F 74% 29.99 in 10.0 mi East 6.9 mph - 0.04 in Rain Light Rain
4:54 AM 48.9 °F 41.0 °F 74% 29.95 in 10.0 mi East 8.1 mph - 0.01 in   Overcast
5:54 AM 50.0 °F 41.0 °F 71% 29.98 in 10.0 mi NE 6.9 mph - N/A   Overcast
6:54 AM 48.9 °F 42.1 °F 77% 29.94 in 10.0 mi ESE 6.9 mph - N/A   Mostly Cloudy
7:54 AM 51.1 °F 42.1 °F 71% 29.94 in 10.0 mi SE 9.2 mph - N/A   Scattered Clouds
8:54 AM 55.0 °F 43.0 °F 64% 29.92 in 10.0 mi SE 9.2 mph - N/A   Scattered Clouds
9:54 AM 60.1 °F 45.0 °F 57% 29.91 in 10.0 mi Variable 5.8 mph - N/A   Clear
10:54 AM 66.0 °F 48.0 °F 52% 29.91 in 10.0 mi SSE 5.8 mph - N/A   Clear
11:54 AM 75.0 °F 48.9 °F 40% 29.89 in 10.0 mi SW 12.7 mph 25.3 mph N/A   Clear
12:54 PM 75.9 °F 48.9 °F 38% 29.85 in 10.0 mi South 11.5 mph 20.7 mph N/A   Partly Cloudy
1:54 PM 78.1 °F 50.0 °F 37% 29.81 in 10.0 mi SSW 13.8 mph 24.2 mph N/A   Clear
2:54 PM 80.1 °F 48.9 °F 34% 29.80 in 10.0 mi SSW 12.7 mph 23.0 mph N/A   Clear
3:54 PM 81.0 °F 48.9 °F 33% 29.78 in 10.0 mi South 16.1 mph 25.3 mph N/A   Clear
4:54 PM 81.0 °F 48.9 °F 33% 29.77 in 10.0 mi South 10.4 mph - N/A   Partly Cloudy
5:33 PM 72.0 °F 50.0 °F 46% 29.78 in 10.0 mi NW 18.4 mph 24.2 mph N/A   Clear
5:54 PM 71.1 °F 50.0 °F 47% 29.79 in 10.0 mi NW 12.7 mph - N/A   Clear
6:54 PM 69.1 °F 51.1 °F 53% 29.81 in 10.0 mi NW 6.9 mph - N/A   Clear
7:54 PM 64.0 °F 48.9 °F 58% 29.83 in 10.0 mi Calm Calm - N/A   Clear
8:54 PM 61.0 °F 50.0 °F 67% 29.83 in 10.0 mi SE 4.6 mph - N/A   Clear
9:54 PM 63.0 °F 50.0 °F 63% 29.83 in 10.0 mi SE 3.5 mph - N/A   Clear
10:54 PM 61.0 °F 50.0 °F 67% 29.82 in 10.0 mi SE 5.8 mph - N/A   Clear
11:54 PM 62.1 °F 50.0 °F 65% 29.81 in 10.0 mi SE 4.6 mph - N/A   Clear